STARLINK-32567, 61930

Orbit data source: Space-Track

STARLINK-32567, 61930 is a payload satellite owned by SpaceX/Seattle (US) in LEO that was launched on Mon, 11 Nov 2024 UTC via an FALCON 9 launch vehicle from the Air Force Eastern Test Range (AFETR). Payload-class satellites include a variety of spacecraft equipped with specific instruments for various scientific and technological missions. These include communications satellites like Starlink; space stations such as the ISS; scientific satellites like the Hubble; Earth observation satellites from companies like Planet Labs, Umbra, and HawkEye 360; GPS; miniature CubeSats for education and research; and military/defense satellites.

Loading next visibility...
Identifier
61930, 2024-207U
Orbit
LEO
Country
Flag of USUS
Related business
Manufacturer
SpaceX/Seattle
Mission
Operational Commercial Communications
Bus & Motor
STARLINK V2M, Unknown motor
Mass
730 kg wet, ~700 kg dry
Launch date (UTC)
2024-11-11 (1 year ago)
Launch vehicle
FALCON 9
Launch site
Air Force Eastern Test Range (AFETR)
Object type
Payload
Rocket body
Debris
Shape & HBR
Box + 2 Pan, 17.7 m
Radar Cross Section
33.884 m², Large (>1 m²)

Expand to show TLE details & history
Last TLE update: 1 day ago

TLE from 1 day ago
0 STARLINK-32567
1 61930U 24207U   25312.08829336  .00047725  00000-0  17314-2 0  9999
2 61930  43.0022 245.1012 0000920 256.4833 103.5916 15.27603501 56757
Epoch: 2025-11-08T02:07Z
TLE epoch observation values (Epoch: 2025-11-08T02:07:08.546Z)
Latitude
-0.00003°
Longitude
165.79264°
Altitude
482.903 km
Speed
7.626 km/s
True Right ascension
16h 20m 24s
True Declination
0° 00' 00"
Sunlit
Object was in daylight at epoch
Visualization orbit readout
Latitude
Unknown
Longitude
Unknown
Altitude
Unknown
Speed
Unknown
Apparent Right ascension
Unknown
Apparent Declination
Unknown
Sunlit
N/A
Visualization observer readout
Local Sidereal Time
02:49:31
Azimuth
Unknown
Elevation
Unknown
Doppler factor
Unknown
Orbital elements
Apogee altitude
485.555 km
Perigee altitude
484.292 km
Semi-major axis
6,863.061 km
Eccentricity
0.00009
Inclination
43.0022°
RAAN
245.1012°
Arg. of periapsis
256.4833°
True anomaly
103.60185°
Mean anomaly
103.5916°
Eccentric anomaly
103.59672°
Mean motion
3.81739 °/min
Orbital period
94.31 mins
BSTAR
0.0017314
Loading maneuver chart data...
Computing Atmospheric mass density...
Loading historical data...
Loading historical data...
Loading historical data...
Loading historical data...
Loading historical data...
Loading historical data...
Loading historical data...

Documentation

Showing up to 5 results
|